Thomson, GA

1:49 AM EDT on April 27, 2018 (GMT -0400)
Thomson-McDuffie County

Weather History for KHQU - August, 2012

Change the Weather History Date:

Sunday, August 12, 2012

  Actual Average (KDNL) Record (KDNL)
Temperature  
Mean Temperature 75 °F -  
Max Temperature 85 °F 89 °F 100 °F (1999)
Min Temperature 65 °F 69 °F 69 °F (2004)
Cooling Degree Days 10    
Growing Degree Days 25 (Base 50)    
Moisture  
Dew Point 66 °F    
Average Humidity 78    
Maximum Humidity 100    
Minimum Humidity 39    
Precipitation  
Precipitation 0.00 in - - ()
Sea Level Pressure  
Sea Level Pressure 30.03 in    
Wind  
Wind Speed 3 mph (WSW)    
Max Wind Speed 9 mph    
Max Gust Speed -    
Visibility 9 miles    
Events      
Averages and records for this station are not official NWS values.
T = Trace of Precipitation, MM = Missing Value Source: NWS Daily Summary

Daily Weather History Graph

Daily Weather History Graph

Search for Another Location

Airport or City:

Astronomy

Aug. 12, 2012 Rise Set
Actual Time 6:50 AM EDT 8:18 PM EDT
Civil Twilight 6:24 AM EDT 8:45 PM EDT
Nautical Twilight 5:52 AM EDT 9:16 PM EDT
Astronomical Twilight 5:19 AM EDT 9:49 PM EDT
Moon 2:08 AM EDT (8/12) 4:37 PM EDT (8/12)
Length of Visible Light 14h 21m
Length of Day
13h 28m
Waning Crescent, 24% of the Moon is Illuminated
Aug 12
Waning Crescent
Aug 17
New
Aug 24
First Quarter
Aug 31
Full
Sep 8
Last Quarter

Hourly Weather History & Observations

Time (EDT) Temp. Heat Index Dew Point Humidity Pressure Visibility Wind Dir Wind Speed Gust Speed Precip Events Conditions
12:15 AM 73.4 °F - 73.4 °F 100% 29.99 in 10.0 mi Calm Calm - N/A   Overcast
12:55 AM 73.4 °F - 73.4 °F 100% 30.00 in 10.0 mi SSW 4.6 mph - N/A   Overcast
1:15 AM 73.2 °F - 73.2 °F 100% 30.00 in 10.0 mi SSW 5.8 mph - N/A   Overcast
1:35 AM 73.0 °F - 73.0 °F 100% 29.99 in 10.0 mi SW 4.6 mph - N/A   Overcast
1:55 AM 72.9 °F - 72.9 °F 100% 29.99 in 10.0 mi Calm Calm - N/A   Overcast
2:15 AM 72.9 °F - 72.9 °F 100% 29.99 in 7.0 mi Calm Calm - N/A   Overcast
2:35 AM 72.0 °F - 72.0 °F 100% 29.99 in 7.0 mi Calm Calm - N/A   Scattered Clouds
2:55 AM 71.2 °F - 71.2 °F 100% 29.99 in 4.0 mi Calm Calm - N/A   Scattered Clouds
3:15 AM 70.7 °F - 70.7 °F 100% 29.99 in 4.0 mi Calm Calm - N/A   Clear
3:35 AM 70.9 °F - 70.9 °F 100% 30.00 in 5.0 mi SSW 3.5 mph - N/A   Mostly Cloudy
3:55 AM 70.7 °F - 70.7 °F 100% 30.00 in 4.0 mi SW 3.5 mph - N/A   Scattered Clouds
4:15 AM 70.0 °F - 70.0 °F 100% 29.99 in 3.0 mi Calm Calm - N/A   Scattered Clouds
4:35 AM 70.0 °F - 70.0 °F 100% 29.99 in 3.0 mi West 3.5 mph - N/A   Clear
4:55 AM 69.3 °F - 69.3 °F 100% 30.00 in 3.0 mi WSW 3.5 mph - N/A   Clear
5:15 AM 69.3 °F - 69.3 °F 100% 30.00 in 2.5 mi Calm Calm - N/A   Clear
5:35 AM 68.9 °F - 68.9 °F 100% 30.01 in 2.5 mi Calm Calm - N/A   Clear
5:55 AM 68.4 °F - 68.4 °F 100% 30.01 in 4.0 mi Calm Calm - N/A   Scattered Clouds
6:15 AM 67.5 °F - 67.5 °F 100% 30.01 in 10.0 mi Calm Calm - N/A   Scattered Clouds
6:35 AM 66.7 °F - 66.7 °F 100% 30.01 in 7.0 mi Calm Calm - N/A   Clear
6:55 AM 66.7 °F - 66.7 °F 100% 30.03 in 5.0 mi WNW 3.5 mph - N/A   Scattered Clouds
7:15 AM 66.9 °F - 66.9 °F 100% 30.04 in 10.0 mi WNW 4.6 mph - N/A   Mostly Cloudy
7:35 AM 66.6 °F - 66.6 °F 100% 30.04 in 10.0 mi WNW 5.8 mph - N/A   Mostly Cloudy
7:55 AM 66.6 °F - 66.6 °F 100% 30.04 in 10.0 mi WNW 4.6 mph - N/A   Scattered Clouds
8:15 AM 67.5 °F - 66.4 °F 96% 30.04 in 10.0 mi NW 3.5 mph - N/A   Clear
8:35 AM 68.5 °F - 66.6 °F 93% 30.05 in 10.0 mi Calm Calm - N/A   Clear
8:55 AM 70.2 °F - 67.1 °F 90% 30.05 in 10.0 mi Calm Calm - N/A   Clear
9:15 AM 71.6 °F - 67.8 °F 88% 30.05 in 10.0 mi Calm Calm - N/A   Clear
9:35 AM 72.3 °F - 68.4 °F 87% 30.05 in 10.0 mi Calm Calm - N/A   Clear
9:55 AM 73.4 °F - 66.9 °F 80% 30.06 in 10.0 mi Calm Calm - N/A   Clear
10:15 AM 75.6 °F - 67.3 °F 75% 30.05 in 10.0 mi Calm Calm - N/A   Clear
10:35 AM 77.5 °F - 66.4 °F 68% 30.05 in 10.0 mi WNW 3.5 mph - N/A   Clear
10:55 AM 78.4 °F - 65.1 °F 63% 30.05 in 10.0 mi WSW 3.5 mph - N/A   Clear
11:15 AM 79.3 °F - 65.1 °F 62% 30.06 in 10.0 mi SW 4.6 mph - N/A   Clear
11:35 AM 80.2 °F 81.5 °F 62.6 °F 55% 30.06 in 10.0 mi WNW 6.9 mph - N/A   Clear
11:55 AM 80.6 °F 81.9 °F 63.1 °F 55% 30.05 in 10.0 mi West 4.6 mph - N/A   Clear
12:15 PM 81.0 °F 82.1 °F 62.6 °F 53% 30.05 in 10.0 mi West 5.8 mph - N/A   Clear
12:35 PM 82.2 °F 84.0 °F 65.3 °F 56% 30.04 in 10.0 mi WNW 6.9 mph - N/A   Clear
12:55 PM 83.5 °F 85.3 °F 65.5 °F 54% 30.03 in 10.0 mi SW 5.8 mph - N/A   Clear
1:15 PM 83.5 °F 85.1 °F 64.9 °F 53% 30.04 in 10.0 mi SW 8.1 mph - N/A   Clear
1:35 PM 83.8 °F 85.3 °F 64.6 °F 52% 30.04 in 10.0 mi SW 6.9 mph - N/A   Clear
1:55 PM 84.0 °F 85.2 °F 63.7 °F 50% 30.04 in 10.0 mi West 8.1 mph - N/A   Clear
2:15 PM 84.4 °F 85.6 °F 63.7 °F 50% 30.03 in 10.0 mi West 9.2 mph - N/A   Clear
2:35 PM 85.1 °F 86.1 °F 63.5 °F 48% 30.03 in 10.0 mi WSW 6.9 mph - N/A   Clear
2:55 PM 84.9 °F 85.9 °F 63.1 °F 48% 30.02 in 10.0 mi SW 3.5 mph - N/A   Clear
3:15 PM 85.1 °F 85.7 °F 62.1 °F 46% 30.02 in 10.0 mi West 9.2 mph - N/A   Clear
3:35 PM 85.1 °F 85.7 °F 62.1 °F 46% 30.01 in 10.0 mi SW 9.2 mph - N/A   Clear
3:55 PM 85.8 °F 86.1 °F 61.5 °F 44% 30.01 in 10.0 mi SW 6.9 mph - N/A   Clear
4:15 PM 85.3 °F 85.0 °F 59.5 °F 42% 30.01 in 10.0 mi WSW 6.9 mph - N/A   Clear
4:35 PM 85.8 °F 85.0 °F 58.5 °F 39% 30.01 in 10.0 mi West 4.6 mph - N/A   Clear
4:55 PM 85.5 °F 85.4 °F 60.6 °F 43% 30.01 in 10.0 mi WNW 6.9 mph - N/A   Clear
5:15 PM 85.6 °F 84.8 °F 58.3 °F 39% 30.01 in 10.0 mi West 5.8 mph - N/A   Clear
5:35 PM 85.5 °F 85.2 °F 60.3 °F 42% 30.01 in 10.0 mi WSW 3.5 mph - N/A   Clear
5:55 PM 85.5 °F 85.0 °F 59.0 °F 41% 30.01 in 10.0 mi West 4.6 mph - N/A   Clear
6:15 PM 85.1 °F 84.8 °F 59.7 °F 42% 30.01 in 10.0 mi West 3.5 mph - N/A   Clear
6:35 PM 84.6 °F 84.4 °F 60.1 °F 43% 30.01 in 10.0 mi Calm Calm - N/A   Clear
6:55 PM 83.7 °F 84.3 °F 62.2 °F 48% 30.01 in 10.0 mi WSW 3.5 mph - N/A   Clear
7:15 PM 81.9 °F 83.5 °F 64.8 °F 56% 30.01 in 10.0 mi Calm Calm - N/A   Clear
7:35 PM 78.1 °F - 65.3 °F 65% 30.03 in 10.0 mi Calm Calm - N/A   Clear
7:55 PM 75.0 °F - 68.2 °F 79% 30.03 in 7.0 mi Calm Calm - N/A   Clear
8:15 PM 72.7 °F - 67.3 °F 83% 30.04 in 10.0 mi Calm Calm - N/A   Clear
8:35 PM 71.1 °F - 66.7 °F 86% 30.05 in 10.0 mi Calm Calm - N/A   Clear
8:55 PM 69.6 °F - 65.7 °F 87% 30.05 in 10.0 mi Calm Calm - N/A   Clear
9:15 PM 68.9 °F - 66.6 °F 92% 30.06 in 10.0 mi Calm Calm - N/A   Clear
9:35 PM 68.0 °F - 66.9 °F 96% 30.07 in 10.0 mi Calm Calm - N/A   Clear
9:55 PM 67.5 °F - 66.9 °F 98% 30.07 in 10.0 mi Calm Calm - N/A   Clear
10:15 PM 66.6 °F - 66.6 °F 100% 30.07 in 10.0 mi Calm Calm - N/A   Clear
10:35 PM 66.4 °F - 66.4 °F 100% 30.07 in 10.0 mi Calm Calm - N/A   Clear
10:55 PM 66.2 °F - 66.2 °F 100% 30.08 in 10.0 mi Calm Calm - N/A   Clear
11:15 PM 65.8 °F - 65.8 °F 100% 30.07 in 10.0 mi Calm Calm - N/A   Clear
11:35 PM 65.3 °F - 65.3 °F 100% 30.07 in 10.0 mi Calm Calm - N/A   Clear
11:55 PM 65.3 °F - 65.3 °F 100% 30.07 in 10.0 mi Calm Calm - N/A   Clear